Printer-friendly version

IAU Minor Planet Center

Minor Planet Center

MPEC 2006-M16 : 2006 MW1

The following Minor Planet Electronic Circular may be linked-to from your own Web pages, but must not otherwise be redistributed electronically.


Read MPEC 2006-M15 Read MPEC 2006-M17


M.P.E.C. 2006-M16                                Issued 2006 June 20, 16:43 UT

     The Minor Planet Electronic Circulars contain information on unusual
         minor planets and routine data on comets.  They are published
   on behalf of Commission 20 of the International Astronomical Union by the
          Minor Planet Center, Smithsonian Astrophysical Observatory,
                          Cambridge, MA 02138, U.S.A.

                  Supported in part by the Brinson Foundation
                  Supported in part by the TABASGO Foundation
             Prepared using the Tamkin Foundation Computer Network

                              MPC@CFA.HARVARD.EDU
          URL http://cfa-www.harvard.edu/iau/mpc.html  ISSN 1523-6714

                                   2006 MW1

Observations:
     K06M01W  C2006 06 19.38270 21 26 20.65 -14 42 37.1          18.5 V EM016703
     K06M01W  C2006 06 19.39191 21 26 23.01 -14 43 22.5                 EM016703
     K06M01W  C2006 06 19.40106 21 26 25.50 -14 44 11.4                 EM016703
     K06M01W  C2006 06 19.41030 21 26 28.17 -14 44 55.0                 EM016703
     K06M01W* C2006 06 19.42175 21 26 31.05 -14 45 53.3          18.4 V EM016G96
     K06M01W  C2006 06 19.43118 21 26 33.57 -14 46 40.5          18.3 V EM016G96
     K06M01W  C2006 06 19.44068 21 26 36.09 -14 47 28.0          18.4 V EM016G96
     K06M01W  C2006 06 19.45004 21 26 38.61 -14 48 14.6          18.4 V EM016G96
     K06M01W  C2006 06 19.46502 21 26 42.61 -14 49 29.6          18.4 V EM016G96
     K06M01W  C2006 06 19.46556 21 26 42.75 -14 49 32.4          18.4 V EM016G96
     K06M01W  C2006 06 19.46610 21 26 42.90 -14 49 35.1          18.5 V EM016G96
     K06M01W  C2006 06 19.46663 21 26 43.04 -14 49 37.7          18.4 V EM016G96
     K06M01W  C2006 06 19.96219 21 29 03.23 -15 30 51.2          18.4 V EM016A50
     K06M01W  C2006 06 19.96387 21 29 03.73 -15 31 01.1          18.1 V EM016A50
     K06M01W  C2006 06 19.96556 21 29 04.25 -15 31 10.3          18.1 V EM016A50
     K06M01W  C2006 06 19.96723 21 29 04.68 -15 31 18.8          18.3 V EM016A50
     K06M01W  C2006 06 19.96891 21 29 05.20 -15 31 28.3          18.3 V EM016A50
     K06M01W  C2006 06 20.31584 21 30 42.93 -16 00 19.4          19.1 R EM016734
     K06M01W  C2006 06 20.31823 21 30 43.60 -16 00 31.3          18.9 R EM016734
     K06M01W  C2006 06 20.32061 21 30 44.21 -16 00 42.9          19.0 R EM016734
     K06M01W  C2006 06 20.35822 21 30 54.91 -16 03 47.3          18.2 R EM016854
     K06M01W  C2006 06 20.36208 21 30 55.99 -16 04 06.7          18.0 R EM016854
     K06M01W  C2006 06 20.36350 21 30 56.34 -16 04 14.7          18.4 V EM016G96
     K06M01W  C2006 06 20.36592 21 30 56.98 -16 04 26.1          17.9 R EM016854
     K06M01W  C2006 06 20.36751 21 30 57.42 -16 04 34.3          18.4 V EM016703
     K06M01W  C2006 06 20.36936 21 30 57.92 -16 04 43.9          18.4 V EM016G96
     K06M01W  C2006 06 20.37229 21 30 58.71 -16 04 58.6          18.4 V EM016G96
     K06M01W  C2006 06 20.37442 21 30 59.25 -16 05 09.4          18.1 V EM016703
     K06M01W  C2006 06 20.38130 21 31 01.09 -16 05 44.3          18.3 V EM016703
     K06M01W  C2006 06 20.38816 21 31 02.96 -16 06 18.1          18.5 V EM016703
     K06M01W 5C2006 06 20.46333 21 31 23.22 -16 12 34.5          18.8 R EM016673
     K06M01W 5C2006 06 20.46777 21 31 24.44 -16 12 57.4                 EM016673
     K06M01W 5C2006 06 20.47193 21 31 25.55 -16 13 18.2                 EM016673
     K06M01W 5C2006 06 20.47876 21 31 27.37 -16 13 52.1                 EM016673

Observer details:
673 Table Mountain Observatory, Wrightwood.  Observer J. Young.  0.61-m f/16
    Cassegrain + CCD.
703 Catalina Sky Survey.  Observer R. E. Hill.  Measurers E. C. Beshore,
    E. J. Christensen, G. J. Garradd, A. R. Gibbs, A. D. Grauer, R. E. Hill,
    R. A. Kowalski, S. M. Larson, R. H. McNaught.  0.68-m Schmidt + CCD.
734 Farpoint Observatory.  Observer G. Hug.  Measurer D. Tibbets.  0.7-m
    reflector + CCD.
854 Sabino Canyon Observatory, Tucson.  Observer J. E. McGaha.  0.36-m f/10.0
    Schmidt-Cassegrain + CCD.
A50 Andrushivka Astronomical Observatory.  Observers D. Kyrylenko,
    Y. Ivashchenko.  0.6-m reflector + CCD.
G96 Mt. Lemmon Survey.  Observer R. A. Kowalski.  Measurers E. C. Beshore,
    E. J. Christensen, G. J. Garradd, A. R. Gibbs, A. D. Grauer, R. E. Hill,
    R. A. Kowalski, S. M. Larson, R. H. McNaught.  1.5-m reflector + CCD.

Orbital elements:
2006 MW1                                                 Earth MOID = 0.1513 AU
Epoch 2006 Mar. 6.0 TT = JDT 2453800.5                  MPC
M 327.67080              (2000.0)            P               Q
n   0.31736058     Peri.  176.48731     +0.05797547     +0.94034403
a   2.1286327      Node    96.63137     -0.92396795     +0.17771020
e   0.4516277      Incl.   19.72507     -0.37805035     -0.29012444
P   3.11           H   19.8           G   0.15           U   9
Residuals in seconds of arc
060619 703  0.1+  1.2+    060619 A50  1.7-  2.5+    060620 703  0.3+  0.2-
060619 703  1.4-  1.8+    060619 A50  1.1-  1.0+    060620 G96  0.3+  0.5-
060619 703  0.8-  1.4-    060619 A50  0.2-  0.3+    060620 G96  0.4+  0.5-
060619 703  2.2+  1.2+    060619 A50  0.6-  0.2+    060620 703  0.1-  0.5-
060619 G96  0.3-  0.0     060619 A50  0.3+  0.9-    060620 703  0.2-  0.8-
060619 G96  0.2-  0.1-    060620 734  0.5+  1.4-    060620 703  0.3+  0.1-
060619 G96  0.3-  0.3-    060620 734  0.9+  1.3-    060620 673  1.0-  1.7+
060619 G96  0.1+  0.2-    060620 734  0.4+  0.9-    060620 673  0.5-  1.0+
060619 G96  0.3+  0.6-    060620 854  0.1+  0.1-    060620 673  0.5-  1.1+
060619 G96  0.3+  0.8-    060620 854  0.7+  0.1-    060620 673  0.5-  1.4+
060619 G96  0.4+  0.8-    060620 G96  0.3+  0.8-
060619 G96  0.4+  0.7-    060620 854  0.1+  0.1-

Ephemeris:
2006 MW1                 a,e,i = 2.13, 0.45, 20                  q = 1.1673
Date    TT    R. A. (2000) Decl.     Delta      r     Elong.  Phase     V
2006 06 14    21 01.47   -07 30.1    0.230    1.167   126.6    44.3    18.6
2006 06 24    21 47.98   -21 07.9    0.221    1.171   129.8    41.8    18.5
2006 07 04    22 33.56   -34 08.1    0.235    1.183   130.5    40.8    18.6
2006 07 14    23 13.03   -44 04.5    0.267    1.205   129.7    40.5    18.9
2006 07 24    23 41.90   -50 47.6    0.311    1.235   128.9    39.8    19.3
2006 08 03    23 58.07   -55 02.2    0.362    1.272   128.6    38.6    19.7
2006 08 13    00 02.34   -57 24.9    0.418    1.316   128.7    37.0    20.0
2006 08 23    23 57.40   -58 16.3    0.479    1.364   128.9    35.3    20.3
2006 09 02    23 47.44   -57 45.4    0.545    1.416   128.8    33.7    20.6
2006 09 12    23 36.91   -56 03.3    0.618    1.471   128.2    32.5    21.0
2006 09 22    23 28.71   -53 25.3    0.698    1.528   126.8    31.7    21.3
2006 10 02    23 24.24   -50 07.4    0.788    1.587   124.5    31.3    21.6
2006 10 12    23 23.61   -46 25.4    0.887    1.646   121.5    31.1    22.0

Kyle E. Smalley              (C) Copyright 2006 MPC           M.P.E.C. 2006-M16

Read MPEC 2006-M15 Read MPEC 2006-M17


Our Web policy. Index to the CBAT/MPC/ICQ pages.


Valid HTML 4.01!